Location: Marcé
(47.5801°N, 0.3280°W)
Time: 22:41:36
(UTC+01:00)

S-56A Canister/Altair - Pass Details

Date: 05 December 2021
Orbit: 633 x 2499 km, 38.9° (Epoch: 16 January)

Event Time Altitude Azimuth Distance (km) Brightness Sun altitude
Rises 01:36:50 0° 243° (WSW) 5,113 - -63.2°
Reaches altitude 10° 01:40:54 10° 237° (WSW) 3,808 - -62.9°
Maximum altitude 01:49:18 39° 173° (S) 1,692 - -62.3°
Drops below altitude 10° 01:55:05 10° 106° (ESE) 2,623 - -61.8°
Sets 01:57:24 0° 98° (E) 3,388 - -61.6°
